Regional Weather Roundup
Issued by NWS

Home | Current Version | Previous Version | Text Only | Print | Product List | Glossary Off
Versions: 1 2 3 4 5 6 7 8 9 10 11 12 13 14 15 16 17 18 19 20 21 22 23 24 25 26 27 28 29 30 31 32 33 34 35 36 37 38 39 40 41 42 43 44 45 46 47 48 49 50

302
ASUS43 KMPX 251310
RWRMN
WEATHER ROUNDUP FOR MINNESOTA
NATIONAL WEATHER SERVICE TWIN CITIES/CHANHASSEN MN
800 AM CDT WED APR 25 2018


NOTE: "FAIR" INDICATES FEW OR NO CLOUDS BELOW 12,000 FEET WITH NO
SIGNIFICANT WEATHER AND/OR OBSTRUCTIONS TO VISIBILITY. N/A MEANS
CURRENT SKY AND/OR WEATHER CONDITIONS ARE NOT AVAILABLE.

MNZ060>063-068>070-251400-
   Twin Cities Metro

CITY           SKY/WX    TMP DP  RH WIND       PRES   REMARKS
TWIN CITIES    FAIR      39  26  59 NE9       30.26S
ST PAUL        FAIR      39  26  59 NE6       30.27F
CRYSTAL        FAIR      38  24  57 NE7       30.26S
BLAINE         SUNNY     37  27  65 NE9       30.26F
LAKEVILLE      FAIR      37  27  65 NE7       30.25S
EDEN PRAIRIE   FAIR      38  24  57 NE8       30.25S
SOUTH ST PAUL  FAIR      39  26  59 N8        30.25F
LAKE ELMO      FAIR      37  28  70 NE7       30.26F
$$
MNZ001>005-007-008-013>017-022>024-027-028-251400-
   Northwest Minnesota

CITY           SKY/WX    TMP DP  RH WIND       PRES   REMARKS
BEMIDJI        FAIR      33  23  69 S7        30.23S WCI  26
HALLOCK        FAIR      39  30  70 S14       30.12F
ROSEAU         FAIR      37  30  75 S12       30.14F
WARROAD        FAIR      37  28  70 SW13      30.15F
THIEF RVR FALL FAIR      38  28  67 S12       30.20
CROOKSTON      FAIR      37  30  75 S13       30.20F
FOSSTON        FAIR      34  25  69 SW10      30.23S WCI  26
DETROIT LAKES  FAIR      34  28  80 SW3       30.26S
MOORHEAD       FAIR      37  28  70 S7        30.27S
PARK RAPIDS    FAIR      32  27  81 CALM      30.24S
MAHNOMEN       FAIR      33  28  82 S10       30.24S WCI  24
$$
MNZ006-009>011-018-025>026-251400-
   North Central Minnesota

CITY           SKY/WX    TMP DP  RH WIND       PRES   REMARKS
BAUDETTE       FAIR      35  24  64 S7        30.17F WCI  29
FLAG ISLAND    FAIR      28  25  86 S10       30.13F WCI  19
INTL FALLS     FAIR      31  26  82 S5        30.20F WCI  26
WASKISH        FAIR      36  25  64 S7        30.20F
BIG FORK       FAIR      32  27  80 CALM      30.23F
LONGVILLE      FAIR      28  27  93 CALM      30.24F
GRAND RAPIDS   FAIR      35  26  69 S3        30.26F
CRANE LAKE     FAIR      27  25  93 CALM      30.25F
ORR            FAIR      28  21  74 CALM      30.21S
COOK           FAIR      30  25  80 CALM      30.23F
WALKER         FAIR      31  24  75 CALM      30.24S
$$
MNZ012-019>021-037-251400-
   Northeast Minnesota

CITY           SKY/WX    TMP DP  RH WIND       PRES   REMARKS
DULUTH         FAIR      35  25  66 CALM      30.24S
ELY            FAIR      30  25  80 CALM      30.23S
HIBBING        FAIR      31  26  82 CALM      30.23F
EVELETH        FAIR      32  26  76 CALM      30.24F
DULUTH HARBOR  FAIR      36  27  69 CALM      30.28S
TWO HARBORS    FAIR      39  28  65 CALM      30.23S
SILVER BAY     FAIR      34  27  75 CALM      30.22F
GRAND MARAIS     N/A     34  26  72 CALM      30.25S
G MARAIS ARPRT FAIR      30  18  59 CALM      30.21S
$$
MNZ029>031-032-039>041-046>048-054>057-064-251400-
   West Central Minnesota

CITY           SKY/WX    TMP DP  RH WIND       PRES   REMARKS
FERGUS FALLS   FAIR      34  28  80 CALM      30.27S
WHEATON        SUNNY     34  30  86 CALM      30.30F
MORRIS         SUNNY     34  30  86 CALM      30.28S
ALEXANDRIA     FAIR      36  27  69 CALM      30.27S
ELBOW LAKE     FAIR      33  29  87 CALM      30.28F
WADENA         FAIR      32  27  80 CALM      30.25F
GLENWOOD       FAIR      36  25  64 CALM      30.27S
APPLETON       SUNNY     34  30  86 CALM      30.29F
BENSON         SUNNY     34  30  86 CALM      30.29F
ORTONVILLE     SUNNY     36  32  87 CALM      30.28F
WILLMAR        FAIR      36  28  75 CALM      30.30S
$$
MNZ033>034-036-042>043-049>051-058-059-251400-
   Central Minnesota

CITY           SKY/WX    TMP DP  RH WIND       PRES   REMARKS
ST CLOUD       FAIR      36  27  69 N3        30.27S
SAUK CENTRE    FAIR      31  27  84 CALM      30.28S
PAYNESVILLE    FAIR      34  30  85 CALM      30.27F
AITKIN         FAIR      30  27  86 CALM      30.24F
PINE RIVER     FAIR      28  25  86 CALM      30.28S
BRAINERD       FAIR      32  25  75 CALM      30.26S
STAPLES        FAIR      30  27  86 CALM      30.25F
LONG PRAIRIE   FAIR      32  27  80 CALM      30.27F
LITTLE FALLS   FAIR      32  23  69 CALM      30.27F
LITCHFIELD     FAIR      37  28  70 N5        30.28S
BUFFALO        FAIR      36  25  64 NE6       30.28R
MAPLE LAKE     FAIR      36  29  77 N6        30.28S
HUTCHINSON     FAIR      37  28  68 NE9       30.27F
$$
MNZ037-044-045-052-053-251400-
   East Central Minnesota

CITY           SKY/WX    TMP DP  RH WIND       PRES   REMARKS
PRINCETON      FAIR      37  27  65 N3        30.27S
MORA           FAIR      34  25  69 CALM      30.28S
CAMBRIDGE      FAIR      37  25  60 CALM      30.27F
RUSH CITY      FAIR      35  25  67 N3        30.27F
MOOSE LAKE     FAIR      34  25  69 CALM      30.24S
HINCKLEY       FAIR      34  27  75 NE3       30.27S
CLOQUET        FAIR      34  23  64 N3        30.25S
MCGREGOR       FAIR      32  28  86 CALM      30.25F
$$
MNZ071>073-080-081-089-090-097-098-251400-
   Southwest Minnesota

CITY           SKY/WX    TMP DP  RH WIND       PRES   REMARKS
MONTEVIDEO     SUNNY     37  30  75 CALM      30.29S
GRANITE FALLS  SUNNY     37  32  84 CALM      30.30S
CANBY          SUNNY     37  31  81 NW3       30.30S
MARSHALL       SUNNY     36  30  79 NW7       30.29S
REDWOOD FALLS  SUNNY     36  28  73 N5        30.28R
OLIVIA         SUNNY     36  32  87 N5        30.27F
PIPESTONE      SUNNY    N/A N/A N/A NE6       30.27S
WINDOM         SUNNY     36  19  51 NW6       30.27R
WORTHINGTON    SUNNY     35  30  82 N8        30.27S WCI  29
JACKSON        SUNNY     34  30  86 NW6       30.26S WCI  29
TRACY          SUNNY     35  32  88 NW6       30.28S WCI  30
SLAYTON        SUNNY     35  30  83 NW6       30.28S WCI  30
$$
MNZ065>067-074>077-082>085-091>093-251400-
   South Central Minnesota

CITY           SKY/WX    TMP DP  RH WIND       PRES   REMARKS
MANKATO        FAIR      37  28  70 N7        30.26R
NEW ULM        SUNNY     37  27  65 N7        30.26S
ST JAMES       MOSUNNY   36  30  80 W7        30.28R
FAIRMONT       SUNNY     36  30  79 NW8       30.26R
GLENCOE        FAIR      37  29  73 N5        30.26S
OWATONNA       FAIR      37  28  70 NE9       30.23S
WASECA         FAIR      36  30  80 NE10      30.25R
ALBERT LEA     FAIR      37  28  70 N5        30.23R
$$
MNZ078>079-086>088-094>096-251400-
   Southeast Minnesota

CITY           SKY/WX    TMP DP  RH WIND       PRES   REMARKS
ROCHESTER      FAIR      39  30  70 N12       30.22R
RED WING       FAIR      39  23  52 NE5       30.24S
STANTON        FAIR      37  29  72 N10       30.23S
DODGE CENTER   FAIR      37  28  70 N9        30.22R
WINONA         FAIR      41  32  70 NE3       30.21S
AUSTIN         FAIR      39  30  70 N6        30.22R
PRESTON        FAIR      38  32  81 N5        30.21R
$$
ABBREVIATIONS USED IN REMARKS
   TC - TEMPERATURES IN CELSIUS
  WCI - WIND CHILL INDEX
   HX - HEAT INDEX
  VSB - VISIBILITY
$$




USA.gov is the U.S. government's official web portal to all federal, state and local government web resources and services.